Previsão horária em Plonica

Hoje, 1 Março, Segunda-feira

Tempo Temperatura Precipitação Vento Pressão Humidade
00:00 +5°C° 0 mm 1 m/s 774 mmHg 88%
01:00 +5°C° 0 mm 1 m/s 775 mmHg 88%
02:00 +4°C° 0 mm 1 m/s 774 mmHg 89%
03:00 +4°C° 0 mm 1 m/s 774 mmHg 90%
04:00 +4°C° 0 mm 1 m/s 774 mmHg 92%
05:00 +4°C° 0 mm 1 m/s 774 mmHg 93%
06:00 +3°C° 0 mm 1 m/s 775 mmHg 94%
07:00 +3°C° 0 mm 1 m/s 775 mmHg 94%
08:00 +3°C° 0 mm 2 m/s 775 mmHg 90%
09:00 +4°C° 0 mm 2 m/s 775 mmHg 85%
10:00 +6°C° 0 mm 2 m/s 775 mmHg 81%
11:00 +7°C° 0 mm 2 m/s 775 mmHg 76%
12:00 +8°C° 0 mm 2 m/s 775 mmHg 70%
13:00 +9°C° 0 mm 2 m/s 775 mmHg 65%
14:00 +10°C° 0 mm 2 m/s 774 mmHg 65%
15:00 +10°C° 0 mm 2 m/s 774 mmHg 64%
16:00 +10°C° 0 mm 2 m/s 774 mmHg 64%
17:00 +9°C° 0 mm 2 m/s 774 mmHg 70%
18:00 +8°C° 0 mm 1 m/s 774 mmHg 76%
19:00 +7°C° 0 mm 1 m/s 774 mmHg 82%
20:00 +7°C° 0 mm 1 m/s 774 mmHg 84%
21:00 +6°C° 0 mm 1 m/s 774 mmHg 86%
22:00 +6°C° 0 mm 1 m/s 774 mmHg 88%
23:00 +5°C° 0 mm 1 m/s 774 mmHg 89%

Amanhã, 2 Março, Terça-feira

Tempo Temperatura Precipitação Vento Pressão Humidade
00:00 +5°C° 0 mm 1 m/s 774 mmHg 90%
01:00 +5°C° 0 mm 1 m/s 774 mmHg 90%
02:00 +4°C° 0 mm 1 m/s 774 mmHg 91%
03:00 +4°C° 0 mm 1 m/s 774 mmHg 91%
04:00 +4°C° 0 mm 1 m/s 773 mmHg 91%
05:00 +4°C° 0 mm 1 m/s 773 mmHg 92%
06:00 +3°C° 0 mm 1 m/s 774 mmHg 92%
07:00 +3°C° 0 mm 1 m/s 774 mmHg 92%
08:00 +4°C° 0 mm 2 m/s 774 mmHg 85%
09:00 +5°C° 0 mm 2 m/s 774 mmHg 78%
10:00 +7°C° 0 mm 2 m/s 773 mmHg 71%
11:00 +8°C° 0 mm 2 m/s 773 mmHg 65%
12:00 +10°C° 0 mm 2 m/s 773 mmHg 59%
13:00 +12°C° 0 mm 2 m/s 773 mmHg 53%
14:00 +12°C° 0 mm 2 m/s 773 mmHg 53%
15:00 +12°C° 0 mm 2 m/s 773 mmHg 54%
16:00 +12°C° 0 mm 1 m/s 772 mmHg 54%
17:00 +11°C° 0 mm 1 m/s 773 mmHg 60%
18:00 +9°C° 0 mm 1 m/s 773 mmHg 66%
19:00 +8°C° 0 mm 1 m/s 773 mmHg 72%
20:00 +7°C° 0 mm 1 m/s 773 mmHg 75%
21:00 +6°C° 0 mm 1 m/s 773 mmHg 78%
22:00 +6°C° 0 mm 1 m/s 773 mmHg 80%
23:00 +5°C° 0 mm 1 m/s 773 mmHg 82%

Depois de amanhã, 3 Março, Quarta-feira

Tempo Temperatura Precipitação Vento Pressão Humidade
00:00 +5°C° 0 mm 1 m/s 773 mmHg 83%
01:00 +5°C° 0 mm 1 m/s 773 mmHg 85%
02:00 +4°C° 0 mm 1 m/s 772 mmHg 86%
03:00 +4°C° 0 mm 1 m/s 772 mmHg 87%
04:00 +4°C° 0 mm 1 m/s 772 mmHg 88%
05:00 +3°C° 0 mm 1 m/s 771 mmHg 88%
06:00 +3°C° 0 mm 1 m/s 771 mmHg 88%
07:00 +3°C° 0 mm 1 m/s 771 mmHg 88%
08:00 +5°C° 0 mm 1 m/s 771 mmHg 81%
09:00 +7°C° 0 mm 1 m/s 771 mmHg 74%
10:00 +9°C° 0 mm 1 m/s 770 mmHg 67%
11:00 +10°C° 0 mm 1 m/s 770 mmHg 62%
12:00 +12°C° 0 mm 2 m/s 769 mmHg 58%
13:00 +13°C° 0 mm 2 m/s 769 mmHg 53%
14:00 +13°C° 0 mm 2 m/s 768 mmHg 54%
15:00 +13°C° 0 mm 2 m/s 767 mmHg 54%
16:00 +13°C° 0 mm 2 m/s 766 mmHg 55%
17:00 +12°C° 0 mm 2 m/s 766 mmHg 61%
18:00 +9°C° 0 mm 2 m/s 766 mmHg 68%
19:00 +7°C° 0 mm 2 m/s 765 mmHg 74%
20:00 +7°C° 0 mm 2 m/s 765 mmHg 77%
21:00 +6°C° 0 mm 2 m/s 765 mmHg 80%
22:00 +6°C° 0 mm 2 m/s 764 mmHg 83%
23:00 +5°C° 0 mm 2 m/s 764 mmHg 85%

4 Março, Quinta-feira

Tempo Temperatura Precipitação Vento Pressão Humidade
00:00 +5°C° 0 mm 2 m/s 763 mmHg 87%
01:00 +5°C° 0 mm 2 m/s 763 mmHg 89%
02:00 +4°C° 0 mm 2 m/s 762 mmHg 91%
03:00 +4°C° 0 mm 2 m/s 762 mmHg 92%
04:00 +4°C° 0 mm 2 m/s 761 mmHg 94%
05:00 +3°C° 0 mm 3 m/s 761 mmHg 94%
06:00 +3°C° 0 mm 3 m/s 761 mmHg 95%
07:00 +3°C° 0 mm 3 m/s 760 mmHg 96%
08:00 +4°C° 0 mm 3 m/s 760 mmHg 91%
09:00 +5°C° 0 mm 3 m/s 760 mmHg 85%
10:00 +7°C° 0 mm 3 m/s 760 mmHg 80%
11:00 +7°C° 0 mm 3 m/s 760 mmHg 75%
12:00 +8°C° 0 mm 3 m/s 759 mmHg 70%
13:00 +9°C° 0 mm 3 m/s 759 mmHg 65%
14:00 +9°C° 0 mm 3 m/s 759 mmHg 65%
15:00 +9°C° 0 mm 3 m/s 758 mmHg 65%
16:00 +8°C° 0 mm 3 m/s 758 mmHg 65%
17:00 +7°C° 0 mm 3 m/s 758 mmHg 69%
18:00 +6°C° 0 mm 2 m/s 757 mmHg 74%
19:00 +5°C° 0 mm 2 m/s 757 mmHg 79%
20:00 +5°C° 0 mm 2 m/s 757 mmHg 79%
21:00 +5°C° 0 mm 2 m/s 757 mmHg 80%
22:00 +4°C° 0 mm 2 m/s 757 mmHg 80%
23:00 +4°C° 0 mm 2 m/s 757 mmHg 81%

5 Março, Sexta-feira

Tempo Temperatura Precipitação Vento Pressão Humidade
00:00 +4°C° 0 mm 2 m/s 757 mmHg 82%
01:00 +4°C° 0 mm 2 m/s 757 mmHg 83%
02:00 +2°C° 0.1 mm 3 m/s 757 mmHg 86%
03:00 0°C° 0.1 mm 4 m/s 757 mmHg 90%
04:00 -1°C° 0.1 mm 5 m/s 758 mmHg 93%
05:00 -1°C° 0.1 mm 5 m/s 758 mmHg 90%
06:00 -2°C° 0.1 mm 5 m/s 759 mmHg 88%
07:00 -2°C° 0.1 mm 5 m/s 759 mmHg 85%
08:00 -1°C° 0 mm 5 m/s 760 mmHg 77%
09:00 -1°C° 0 mm 5 m/s 761 mmHg 68%
10:00 0°C° 0 mm 5 m/s 761 mmHg 59%
11:00 +1°C° 0 mm 5 m/s 762 mmHg 55%
12:00 +1°C° 0 mm 5 m/s 762 mmHg 51%
13:00 +2°C° 0 mm 5 m/s 763 mmHg 47%
14:00 +2°C° 0.1 mm 5 m/s 763 mmHg 46%
15:00 +2°C° 0.1 mm 5 m/s 763 mmHg 46%
16:00 +2°C° 0.1 mm 5 m/s 764 mmHg 46%
17:00 0°C° 0 mm 5 m/s 765 mmHg 51%
18:00 -1°C° 0 mm 4 m/s 765 mmHg 56%
19:00 -2°C° 0 mm 4 m/s 766 mmHg 61%
20:00 -1°C° 0 mm 3 m/s 767 mmHg 63%
21:00 -2°C° 0 mm 3 m/s 767 mmHg 64%
22:00 -2°C° 0 mm 2 m/s 768 mmHg 65%
23:00 -2°C° 0 mm 2 m/s 769 mmHg 66%

6 Março, Sábado

Tempo Temperatura Precipitação Vento Pressão Humidade
00:00 -2°C° 0 mm 2 m/s 769 mmHg 66%
01:00 -2°C° 0 mm 2 m/s 769 mmHg 66%
02:00 -2°C° 0.1 mm 2 m/s 770 mmHg 67%
03:00 -2°C° 0.1 mm 2 m/s 770 mmHg 68%
04:00 -2°C° 0.1 mm 3 m/s 770 mmHg 70%
05:00 -2°C° 0 mm 2 m/s 771 mmHg 69%
06:00 -2°C° 0 mm 2 m/s 771 mmHg 69%
07:00 -1°C° 0 mm 1 m/s 772 mmHg 68%
08:00 0°C° 0 mm 1 m/s 772 mmHg 59%
09:00 +1°C° 0 mm 2 m/s 772 mmHg 51%
10:00 +2°C° 0 mm 2 m/s 773 mmHg 42%
11:00 +2°C° 0 mm 2 m/s 773 mmHg 40%
12:00 +3°C° 0 mm 2 m/s 773 mmHg 38%
13:00 +3°C° 0 mm 2 m/s 773 mmHg 36%
14:00 +3°C° 0 mm 2 m/s 773 mmHg 37%
15:00 +3°C° 0 mm 2 m/s 773 mmHg 37%
16:00 +3°C° 0 mm 2 m/s 772 mmHg 37%
17:00 +2°C° 0 mm 2 m/s 772 mmHg 42%
18:00 +2°C° 0 mm 1 m/s 773 mmHg 46%
19:00 +1°C° 0 mm 1 m/s 773 mmHg 51%
20:00 +1°C° 0 mm 1 m/s 773 mmHg 53%
21:00 -2°C° 0 mm 2 m/s 773 mmHg 55%
22:00 -2°C° 0 mm 2 m/s 773 mmHg 57%
23:00 -2°C° 0 mm 2 m/s 773 mmHg 58%
Mostrar mais

Necessitamos do seu Consentimento

A Meteoprog e os seus Fornecedores de Serviços podem armazenar e aceder a dados pessoais como cookies, identificadores do dispositivo ou outras tecnologias semelhantes existentes no seu dispositivo e processar estes dados para personalizar conteúdos e anúncios, assim como funcionalidades nas redes sociais e análise de tráfego.

  • Armazenar e/ou aceder a informações no seu dispositivo

    Os cookies, identificadores do dispositivo ou outras informações podem ser armazenados ou acedidos no seu dispositivo, para os fins acima indicados.

  • Anúncios e conteúdos personalizados, medição de anúncios e conteúdos, dados sobre o público-alvo e desenvolvimento de produtos

    Os anúncios e os conteúdos podem ser personalizados com base num perfil. Podem ser adicionados dados adicionais para uma maior personalização dos anúncios e dos conteúdos. A eficácia dos anúncios e dos conteúdos pode ser medida. Podem ser obtidas informações sobre o público que visualizou os anúncios e os conteúdos. Estes dados podem ser usados para desenvolver ou melhorar sistemas, softwares ou a experiência do utilizador.

Ao clicar em "Eu concordo”, permitirá o uso de cookies, identificadores do dispositivo e web beacons mencionados ou outras tecnologias semelhantes. As configurações do navegador do seu dispositivo podem ser alteradas.

Para certos fins, podem ser invocados interesses legítimos ao invés de consentimento. Pode ler mais informação sobre este assunto na nossa Política de Privacidade e Cookies.